| time (UTC) | temp C | wind direction | speed KPH | gust KPH | rain 1hr cm | rain 24hr cm | rain mn cm | humidity % | barometer mb |
| 20260507220902 | 16 | 155 | 3.2 | 8.0 | 0.00 | 0.33 | 0.03 | 72 | 1007.2 |
| 20260507220003 | 16 | 143 | 3.2 | 12.9 | 0.00 | 0.33 | 0.03 | 71 | 1007.1 |
| 20260507215402 | 16 | 158 | 3.2 | 12.9 | 0.00 | 0.33 | 0.03 | 71 | 1007.1 |
| 20260507214502 | 16 | 164 | 8.0 | 16.1 | 0.00 | 0.33 | 0.03 | 70 | 1007.2 |
| 20260507213602 | 17 | 165 | 6.4 | 16.1 | 0.00 | 0.33 | 0.03 | 70 | 1007.3 |
| 20260507212723 | 17 | 149 | 4.8 | 12.9 | 0.00 | 0.33 | 0.03 | 67 | 1007.1 |
| 20260507211802 | 17 | 161 | 4.8 | 12.9 | 0.00 | 0.33 | 0.03 | 66 | 1007.1 |
| 20260507210902 | 17 | 169 | 6.4 | 16.1 | 0.00 | 0.33 | 0.03 | 66 | 1007.0 |
| 20260507210002 | 17 | 176 | 4.8 | 11.3 | 0.00 | 0.33 | 0.03 | 65 | 1006.9 |
| 20260507205403 | 17 | 176 | 6.4 | 14.5 | 0.00 | 0.33 | 0.03 | 62 | 1007.0 |
| 20260507204502 | 18 | 176 | 4.8 | 12.9 | 0.00 | 0.33 | 0.03 | 61 | 1007.1 |
| 20260507203602 | 17 | 156 | 6.4 | 14.5 | 0.00 | 0.33 | 0.03 | 62 | 1007.1 |
| 20260507202702 | 17 | 172 | 6.4 | 14.5 | 0.00 | 0.33 | 0.03 | 62 | 1007.1 |
| 20260507201823 | 17 | 193 | 4.8 | 14.5 | 0.00 | 0.33 | 0.03 | 62 | 1007.2 |
| 20260507200903 | 17 | 186 | 6.4 | 12.9 | 0.00 | 0.33 | 0.03 | 64 | 1007.3 |
| 20260507200002 | 17 | 195 | 4.8 | 12.9 | 0.00 | 0.33 | 0.03 | 62 | 1007.4 |
| 20260507195402 | 17 | 195 | 3.2 | 9.7 | 0.00 | 0.33 | 0.03 | 62 | 1007.5 |
| 20260507194502 | 17 | 177 | 4.8 | 9.7 | 0.00 | 0.33 | 0.03 | 62 | 1007.4 |
| 20260507193602 | 17 | 169 | 6.4 | 12.9 | 0.00 | 0.33 | 0.03 | 60 | 1007.7 |
| 20260507192703 | 17 | 80 | 3.2 | 8.0 | 0.00 | 0.33 | 0.03 | 62 | 1007.9 |
| 20260507191802 | 16 | 64 | 1.6 | 4.8 | 0.00 | 0.33 | 0.03 | 62 | 1007.9 |
| 20260507190902 | 16 | 144 | 1.6 | 6.4 | 0.00 | 0.33 | 0.03 | 64 | 1008.1 |
| 20260507190024 | 16 | 347 | 3.2 | 6.4 | 0.00 | 0.33 | 0.03 | 64 | 1008.2 |
| 20260507185402 | 15 | 336 | 3.2 | 8.0 | 0.00 | 0.33 | 0.03 | 63 | 1008.3 |
| 20260507184503 | 16 | 162 | 4.8 | 16.1 | 0.00 | 0.33 | 0.03 | 63 | 1008.4 |
| 20260507183602 | 16 | 117 | 3.2 | 12.9 | 0.00 | 0.33 | 0.03 | 63 | 1008.3 |
| 20260507182703 | 16 | 94 | 6.4 | 12.9 | 0.00 | 0.33 | 0.03 | 66 | 1008.4 |
| 20260507181802 | 16 | 162 | 4.8 | 12.9 | 0.00 | 0.33 | 0.03 | 64 | 1008.6 |
| 20260507180903 | 15 | 216 | 4.8 | 11.3 | 0.00 | 0.33 | 0.03 | 67 | 1008.7 |
| 20260507180003 | 15 | 214 | 3.2 | 9.7 | 0.00 | 0.33 | 0.03 | 65 | 1008.9 |
| 20260507175402 | 15 | 190 | 3.2 | 9.7 | 0.00 | 0.33 | 0.03 | 68 | 1009.0 |
| 20260507174524 | 15 | 175 | 3.2 | 11.3 | 0.00 | 0.33 | 0.03 | 70 | 1009.0 |
| 20260507173602 | 14 | 200 | 4.8 | 9.7 | 0.00 | 0.33 | 0.03 | 68 | 1009.3 |
| 20260507172703 | 15 | 157 | 4.8 | 12.9 | 0.00 | 0.33 | 0.03 | 67 | 1009.4 |
| 20260507171802 | 15 | 121 | 3.2 | 6.4 | 0.00 | 0.33 | 0.03 | 68 | 1009.5 |
| 20260507170923 | 14 | 124 | 3.2 | 8.0 | 0.00 | 0.33 | 0.03 | 67 | 1009.6 |
| 20260507170002 | 14 | 117 | 3.2 | 9.7 | 0.00 | 0.33 | 0.03 | 69 | 1009.8 |
| 20260507165403 | 14 | 75 | 3.2 | 9.7 | 0.00 | 0.33 | 0.03 | 68 | 1010.1 |
| 20260507164523 | 13 | 120 | 3.2 | 11.3 | 0.00 | 0.33 | 0.03 | 76 | 1010.1 |
| 20260507163603 | 13 | 97 | 4.8 | 11.3 | 0.00 | 0.33 | 0.03 | 71 | 1010.4 |
| 20260507162702 | 12 | 84 | 4.8 | 11.3 | 0.00 | 0.33 | 0.03 | 73 | 1010.5 |
| 20260507161802 | 12 | 70 | 4.8 | 11.3 | 0.00 | 0.33 | 0.03 | 73 | 1010.6 |
| 20260507160902 | 12 | 46 | 4.8 | 8.0 | 0.00 | 0.33 | 0.03 | 74 | 1010.9 |
| 20260507160003 | 12 | 356 | 3.2 | 8.0 | 0.00 | 0.33 | 0.03 | 75 | 1011.3 |
| 20260507155403 | 12 | 356 | 4.8 | 9.7 | 0.00 | 0.33 | 0.03 | 75 | 1011.1 |
| 20260507154503 | 12 | 337 | 4.8 | 8.0 | 0.00 | 0.33 | 0.03 | 76 | 1011.0 |
| 20260507153623 | 12 | 357 | 4.8 | 9.7 | 0.00 | 0.33 | 0.03 | 78 | 1011.3 |
| 20260507152702 | 12 | 350 | 6.4 | 12.9 | 0.00 | 0.33 | 0.03 | 75 | 1011.2 |
| 20260507151802 | 12 | 1 | 6.4 | 12.9 | 0.00 | 0.33 | 0.03 | 79 | 1011.2 |
| 20260507150903 | 12 | 350 | 6.4 | 12.9 | 0.00 | 0.33 | 0.03 | 80 | 1011.1 |
| 20260507150003 | 11 | 356 | 6.4 | 12.9 | 0.00 | 0.33 | 0.03 | 80 | 1011.4 |
| 20260507145424 | 11 | 11 | 4.8 | 9.7 | 0.00 | 0.33 | 0.03 | 80 | 1011.5 |
| 20260507144503 | 11 | 2 | 4.8 | 11.3 | 0.00 | 0.33 | 0.03 | 81 | 1011.4 |
| 20260507143603 | 11 | 2 | 6.4 | 12.9 | 0.00 | 0.33 | 0.03 | 81 | 1011.5 |
| 20260507142702 | 11 | 11 | 8.0 | 17.7 | 0.00 | 0.33 | 0.03 | 81 | 1011.7 |
| 20260507141802 | 11 | 17 | 9.7 | 17.7 | 0.00 | 0.33 | 0.03 | 82 | 1011.9 |
| 20260507140923 | 11 | 24 | 9.7 | 16.1 | 0.00 | 0.33 | 0.03 | 82 | 1011.8 |
| 20260507140003 | 11 | 14 | 8.0 | 16.1 | 0.00 | 0.33 | 0.03 | 84 | 1011.8 |
| 20260507135403 | 11 | 11 | 8.0 | 14.5 | 0.00 | 0.33 | 0.03 | 85 | 1011.9 |
| 20260507134502 | 11 | 1 | 9.7 | 16.1 | 0.00 | 0.33 | 0.03 | 85 | 1011.8 |
| 20260507133603 | 11 | 356 | 8.0 | 17.7 | 0.00 | 0.33 | 0.03 | 87 | 1011.8 |
| 20260507132702 | 11 | 354 | 9.7 | 14.5 | 0.00 | 0.33 | 0.03 | 86 | 1011.8 |
| 20260507131803 | 11 | 357 | 8.0 | 14.5 | 0.00 | 0.36 | 0.03 | 87 | 1011.8 |
| 20260507130903 | 11 | 340 | 8.0 | 12.9 | 0.00 | 0.36 | 0.03 | 87 | 1012.0 |
| 20260507130002 | 11 | 339 | 8.0 | 14.5 | 0.00 | 0.36 | 0.03 | 88 | 1011.9 |
| 20260507125403 | 11 | 337 | 6.4 | 12.9 | 0.00 | 0.38 | 0.03 | 87 | 1012.0 |
| 20260507124503 | 11 | 333 | 6.4 | 9.7 | 0.00 | 0.41 | 0.03 | 88 | 1011.8 |
| 20260507123603 | 11 | 339 | 4.8 | 6.4 | 0.00 | 0.43 | 0.03 | 88 | 1012.1 |
| 20260507122702 | 11 | 336 | 4.8 | 12.9 | 0.00 | 0.46 | 0.03 | 89 | 1012.0 |
| 20260507121802 | 11 | 333 | 6.4 | 9.7 | 0.00 | 0.46 | 0.03 | 90 | 1011.8 |
| 20260507120903 | 11 | 344 | 6.4 | 14.5 | 0.00 | 0.46 | 0.03 | 90 | 1011.6 |
| 20260507120003 | 11 | 345 | 6.4 | 14.5 | 0.00 | 0.48 | 0.03 | 89 | 1011.5 |
| 20260507115403 | 11 | 345 | 6.4 | 16.1 | 0.00 | 0.48 | 0.03 | 89 | 1011.5 |
| 20260507114503 | 11 | 346 | 4.8 | 9.7 | 0.00 | 0.51 | 0.03 | 88 | 1011.5 |
| 20260507113603 | 11 | 336 | 4.8 | 8.0 | 0.00 | 0.51 | 0.03 | 88 | 1011.5 |
| 20260507112723 | 11 | 335 | 4.8 | 8.0 | 0.00 | 0.51 | 0.03 | 89 | 1011.4 |
| 20260507111803 | 11 | 350 | 3.2 | 6.4 | 0.00 | 0.51 | 0.03 | 89 | 1011.5 |
| 20260507110903 | 11 | 13 | 3.2 | 8.0 | 0.00 | 0.51 | 0.03 | 89 | 1011.3 |
| 20260507110003 | 11 | 6 | 1.6 | 6.4 | 0.00 | 0.51 | 0.03 | 89 | 1011.2 |
| 20260507105425 | 11 | 358 | 3.2 | 6.4 | 0.00 | 0.53 | 0.03 | 89 | 1011.0 |
| 20260507104504 | 11 | 359 | 4.8 | 8.0 | 0.00 | 0.53 | 0.03 | 89 | 1010.9 |
| 20260507103623 | 11 | 359 | 4.8 | 6.4 | 0.00 | 0.53 | 0.03 | 89 | 1010.9 |
| 20260507102703 | 11 | 357 | 3.2 | 4.8 | 0.00 | 0.53 | 0.03 | 89 | 1010.8 |
| 20260507101824 | 11 | 344 | 3.2 | 4.8 | 0.00 | 0.53 | 0.03 | 89 | 1011.0 |
| 20260507100903 | 11 | 351 | 1.6 | 6.4 | 0.00 | 0.53 | 0.03 | 90 | 1011.1 |
| 20260507100024 | 11 | 353 | 4.8 | 8.0 | 0.00 | 0.53 | 0.03 | 90 | 1010.8 |
| 20260507095403 | 11 | 354 | 3.2 | 8.0 | 0.00 | 0.53 | 0.03 | 90 | 1010.8 |
| 20260507094503 | 11 | 342 | 3.2 | 8.0 | 0.00 | 0.53 | 0.03 | 91 | 1011.0 |
| 20260507093602 | 11 | 359 | 4.8 | 8.0 | 0.00 | 0.53 | 0.03 | 91 | 1010.4 |
| 20260507092724 | 11 | 20 | 3.2 | 6.4 | 0.00 | 0.53 | 0.03 | 91 | 1010.4 |
| 20260507091802 | 11 | 16 | 3.2 | 6.4 | 0.00 | 0.53 | 0.03 | 91 | 1010.7 |
| 20260507090902 | 11 | 17 | 3.2 | 6.4 | 0.00 | 0.53 | 0.03 | 91 | 1010.6 |
| 20260507090003 | 11 | 345 | 4.8 | 8.0 | 0.00 | 0.53 | 0.03 | 91 | 1010.7 |
| 20260507085403 | 11 | 345 | 4.8 | 9.7 | 0.00 | 0.53 | 0.03 | 91 | 1010.3 |
| 20260507084502 | 11 | 342 | 4.8 | 8.0 | 0.00 | 0.53 | 0.03 | 91 | 1010.4 |
| 20260507083623 | 11 | 350 | 6.4 | 12.9 | 0.00 | 0.53 | 0.03 | 90 | 1010.1 |
| 20260507082702 | 11 | 353 | 9.7 | 14.5 | 0.00 | 0.53 | 0.03 | 90 | 1010.3 |
| 20260507081803 | 11 | 350 | 8.0 | 14.5 | 0.00 | 0.53 | 0.03 | 90 | 1010.3 |
| 20260507080903 | 11 | 344 | 9.7 | 17.7 | 0.00 | 0.53 | 0.03 | 90 | 1010.6 |
| 20260507080003 | 11 | 344 | 8.0 | 14.5 | 0.00 | 0.53 | 0.03 | 90 | 1010.5 |
| 20260507075403 | 12 | 337 | 9.7 | 17.7 | 0.00 | 0.53 | 0.03 | 90 | 1010.4 |
| 20260507074524 | 12 | 337 | 11.3 | 17.7 | 0.00 | 0.53 | 0.03 | 90 | 1010.5 |
| 20260507073602 | 12 | 339 | 9.7 | 19.3 | 0.00 | 0.53 | 0.03 | 91 | 1010.4 |
| 20260507072703 | 12 | 330 | 9.7 | 17.7 | 0.00 | 0.53 | 0.03 | 91 | 1010.1 |
| 20260507071805 | 12 | 351 | 9.7 | 14.5 | 0.00 | 0.53 | 0.03 | 91 | 1009.8 |
| 20260507070903 | 12 | 337 | 11.3 | 19.3 | 0.00 | 0.53 | 0.03 | 91 | 1010.0 |
| 20260507070006 | 12 | 334 | 12.9 | 20.9 | 0.00 | 0.53 | 0.03 | 91 | 1010.0 |
| 20260507065404 | 12 | 339 | 11.3 | 17.7 | 0.00 | 0.53 | 0.03 | 92 | 1009.8 |
| 20260507064503 | 12 | 338 | 9.7 | 17.7 | 0.00 | 0.53 | 0.03 | 92 | 1009.8 |
| 20260507063603 | 12 | 328 | 9.7 | 17.7 | 0.00 | 0.53 | 0.03 | 92 | 1010.1 |
| 20260507062703 | 12 | 327 | 11.3 | 19.3 | 0.00 | 0.53 | 0.03 | 92 | 1010.0 |
| 20260507061802 | 12 | 336 | 12.9 | 19.3 | 0.00 | 0.53 | 0.03 | 92 | 1009.7 |
| 20260507060924 | 13 | 335 | 11.3 | 17.7 | 0.00 | 0.53 | 0.03 | 92 | 1009.7 |
| 20260507060003 | 13 | 337 | 11.3 | 20.9 | 0.00 | 0.53 | 0.03 | 91 | 1010.1 |
| 20260507055402 | 13 | 336 | 12.9 | 20.9 | 0.00 | 0.53 | 0.03 | 92 | 1010.1 |
| 20260507054503 | 13 | 329 | 12.9 | 20.9 | 0.03 | 0.53 | 0.03 | 92 | 1010.0 |
| 20260507053624 | 13 | 339 | 12.9 | 22.5 | 0.03 | 0.53 | 0.03 | 92 | 1010.3 |
| 20260507052724 | 13 | 348 | 14.5 | 22.5 | 0.03 | 0.53 | 0.03 | 92 | 1009.7 |
| 20260507051803 | 13 | 348 | 14.5 | 20.9 | 0.03 | 0.53 | 0.03 | 92 | 1009.7 |
| 20260507050924 | 13 | 333 | 14.5 | 20.9 | 0.03 | 0.53 | 0.03 | 92 | 1009.7 |
| 20260507050024 | 13 | 334 | 12.9 | 20.9 | 0.03 | 0.53 | 0.03 | 93 | 1009.4 |
| 20260507045403 | 13 | 328 | 12.9 | 24.1 | 0.05 | 0.53 | 0.03 | 93 | 1009.2 |
| 20260507044503 | 13 | 322 | 12.9 | 22.5 | 0.20 | 0.51 | 0.00 | 94 | 1009.0 |
| 20260507043602 | 14 | 300 | 4.8 | 14.5 | 0.23 | 0.51 | 0.00 | 94 | 1008.9 |
| 20260507042724 | 14 | 292 | 6.4 | 11.3 | 0.23 | 0.51 | 0.00 | 93 | 1008.8 |
| 20260507041823 | 14 | 321 | 6.4 | 17.7 | 0.23 | 0.51 | 0.00 | 93 | 1009.0 |
| 20260507040903 | 14 | 331 | 14.5 | 22.5 | 0.23 | 0.51 | 0.00 | 93 | 1009.5 |
| 20260507040003 | 15 | 344 | 11.3 | 24.1 | 0.30 | 0.51 | 0.00 | 93 | 1009.8 |
| 20260507035403 | 15 | 323 | 12.9 | 24.1 | 0.28 | 0.48 | 0.48 | 93 | 1009.9 |
| 20260507034503 | 15 | 317 | 12.9 | 20.9 | 0.10 | 0.30 | 0.30 | 93 | 1010.0 |
| 20260507033603 | 15 | 316 | 12.9 | 19.3 | 0.08 | 0.28 | 0.28 | 93 | 1009.6 |
| 20260507032703 | 15 | 329 | 8.0 | 16.1 | 0.08 | 0.28 | 0.28 | 92 | 1009.5 |
| 20260507031803 | 16 | 341 | 11.3 | 20.9 | 0.08 | 0.28 | 0.28 | 92 | 1009.5 |
| 20260507030903 | 16 | 354 | 11.3 | 17.7 | 0.08 | 0.28 | 0.28 | 91 | 1009.4 |
| 20260507030003 | 17 | 345 | 11.3 | 20.9 | 0.00 | 0.20 | 0.20 | 90 | 1009.3 |
| 20260507025403 | 17 | 336 | 8.0 | 17.7 | 0.00 | 0.20 | 0.20 | 91 | 1009.3 |
| 20260507024503 | 17 | 318 | 6.4 | 12.9 | 0.00 | 0.20 | 0.20 | 91 | 1009.2 |
| 20260507023603 | 17 | 303 | 4.8 | 9.7 | 0.00 | 0.20 | 0.20 | 90 | 1009.2 |
| 20260507022703 | 17 | 334 | 4.8 | 14.5 | 0.00 | 0.20 | 0.20 | 89 | 1008.9 |
| 20260507021803 | 17 | 346 | 11.3 | 20.9 | 0.00 | 0.20 | 0.20 | 88 | 1008.6 |
| 20260507020903 | 17 | 336 | 12.9 | 22.5 | 0.00 | 0.20 | 0.20 | 87 | 1008.7 |
| 20260507020024 | 17 | 331 | 6.4 | 14.5 | 0.00 | 0.20 | 0.20 | 89 | 1008.6 |
| 20260507015403 | 17 | 322 | 4.8 | 8.0 | 0.00 | 0.20 | 0.20 | 90 | 1008.5 |
| 20260507014502 | 17 | 306 | 4.8 | 9.7 | 0.00 | 0.20 | 0.20 | 90 | 1008.6 |
| 20260507013603 | 17 | 328 | 4.8 | 8.0 | 0.00 | 0.20 | 0.20 | 88 | 1008.4 |
| 20260507012703 | 17 | 352 | 4.8 | 8.0 | 0.00 | 0.20 | 0.20 | 88 | 1008.0 |
| 20260507011802 | 17 | 327 | 3.2 | 6.4 | 0.00 | 0.20 | 0.20 | 89 | 1008.2 |
| 20260507010903 | 17 | 329 | 4.8 | 11.3 | 0.00 | 0.20 | 0.20 | 89 | 1008.5 |
| 20260507010024 | 18 | 340 | 8.0 | 14.5 | 0.00 | 0.20 | 0.20 | 88 | 1008.5 |
| 20260507005403 | 18 | 359 | 9.7 | 16.1 | 0.00 | 0.20 | 0.20 | 88 | 1008.5 |
| 20260507004503 | 18 | 354 | 6.4 | 14.5 | 0.00 | 0.20 | 0.20 | 87 | 1008.5 |
| 20260507003603 | 18 | 14 | 8.0 | 12.9 | 0.00 | 0.20 | 0.20 | 86 | 1008.6 |
| 20260507002724 | 19 | 2 | 6.4 | 12.9 | 0.00 | 0.20 | 0.20 | 84 | 1008.6 |
| 20260507001803 | 20 | 320 | 9.7 | 16.1 | 0.00 | 0.20 | 0.20 | 82 | 1008.3 |
| 20260507000903 | 20 | 306 | 11.3 | 22.5 | 0.00 | 0.20 | 0.20 | 80 | 1008.1 |
| 20260507000024 | 21 | 298 | 6.4 | 12.9 | 0.00 | 0.20 | 0.20 | 80 | 1007.8 |
| 20260506235403 | 21 | 246 | 4.8 | 9.7 | 0.00 | 0.20 | 0.20 | 76 | 1007.6 |
| 20260506234502 | 22 | 162 | 3.2 | 11.3 | 0.00 | 0.20 | 0.20 | 74 | 1007.3 |
| 20260506233603 | 22 | 158 | 3.2 | 11.3 | 0.00 | 0.20 | 0.20 | 72 | 1007.1 |
| 20260506232702 | 22 | 183 | 6.4 | 17.7 | 0.00 | 0.20 | 0.20 | 72 | 1007.3 |
| 20260506231803 | 22 | 191 | 6.4 | 17.7 | 0.00 | 0.20 | 0.20 | 71 | 1007.5 |
| 20260506230924 | 22 | 175 | 8.0 | 17.7 | 0.00 | 0.20 | 0.20 | 71 | 1007.2 |
| 20260506230024 | 22 | 186 | 6.4 | 14.5 | 0.00 | 0.20 | 0.20 | 71 | 1007.1 |
| 20260506225424 | 22 | 183 | 6.4 | 14.5 | 0.00 | 0.20 | 0.20 | 71 | 1007.1 |
| 20260506224503 | 22 | 181 | 8.0 | 20.9 | 0.00 | 0.20 | 0.20 | 70 | 1007.0 |
| 20260506223603 | 22 | 176 | 8.0 | 20.9 | 0.00 | 0.20 | 0.20 | 70 | 1006.9 |
| 20260506222703 | 22 | 177 | 8.0 | 22.5 | 0.00 | 0.20 | 0.20 | 70 | 1007.0 |
| 20260506221803 | 22 | 182 | 9.7 | 22.5 | 0.00 | 0.20 | 0.20 | 70 | 1006.9 |